• In Germany
  • List of Countries
  • For 7 days
  • Water Temperature
  • Satellite Maps
  • Weather Map
  • Weather Widgets
  • user-avatar
    Login

    Hourly Weather Larisa

    Today, 14 August, Tuesday

    Time Temperature Precipitation Wind Pressure Humidity
    00:00 +25°C° 0 mm 1 mps 753 mmHg 69%
    01:00 +25°C° 0 mm 1 mps 753 mmHg 68%
    02:00 +25°C° 0 mm 1 mps 753 mmHg 69%
    03:00 +24°C° 0 mm 1 mps 753 mmHg 69%
    04:00 +24°C° 0 mm 1 mps 753 mmHg 70%
    05:00 +25°C° 0 mm 1 mps 753 mmHg 66%
    06:00 +27°C° 0 mm 1 mps 753 mmHg 61%
    07:00 +28°C° 0 mm 1 mps 753 mmHg 57%
    08:00 +30°C° 0.1 mm 1 mps 753 mmHg 53%
    09:00 +31°C° 0.1 mm 1 mps 753 mmHg 49%
    10:00 +32°C° 0.1 mm 2 mps 753 mmHg 44%
    11:00 +34°C° 0.1 mm 2 mps 753 mmHg 43%
    12:00 +35°C° 0.1 mm 2 mps 752 mmHg 41%
    13:00 +35°C° 0.1 mm 3 mps 752 mmHg 40%
    14:00 +35°C° 0 mm 3 mps 752 mmHg 41%
    15:00 +35°C° 0 mm 3 mps 752 mmHg 43%
    16:00 +34°C° 0 mm 2 mps 751 mmHg 44%
    17:00 +31°C° 0 mm 2 mps 751 mmHg 49%
    18:00 +30°C° 0 mm 2 mps 751 mmHg 54%
    19:00 +28°C° 0 mm 2 mps 751 mmHg 59%
    20:00 +27°C° 0.6 mm 2 mps 752 mmHg 62%
    21:00 +27°C° 0.6 mm 1 mps 752 mmHg 65%
    22:00 +26°C° 0.6 mm 1 mps 752 mmHg 68%
    23:00 +26°C° 0.2 mm 1 mps 752 mmHg 68%

    Tomorrow, 15 August, Wednesday

    Time Temperature Precipitation Wind Pressure Humidity
    00:00 +25°C° 0.2 mm 1 mps 752 mmHg 69%
    01:00 +25°C° 0.2 mm 2 mps 752 mmHg 70%
    02:00 +25°C° 0 mm 1 mps 752 mmHg 72%
    03:00 +24°C° 0 mm 1 mps 752 mmHg 74%
    04:00 +24°C° 0 mm 1 mps 751 mmHg 75%
    05:00 +25°C° 0 mm 1 mps 751 mmHg 71%
    06:00 +26°C° 0 mm 1 mps 752 mmHg 66%
    07:00 +28°C° 0 mm 1 mps 752 mmHg 62%
    08:00 +29°C° 0 mm 1 mps 752 mmHg 55%
    09:00 +31°C° 0 mm 1 mps 752 mmHg 48%
    10:00 +32°C° 0 mm 2 mps 752 mmHg 42%
    11:00 +34°C° 0 mm 2 mps 752 mmHg 40%
    12:00 +34°C° 0 mm 2 mps 751 mmHg 38%
    13:00 +35°C° 0 mm 2 mps 751 mmHg 36%
    14:00 +35°C° 0.1 mm 3 mps 751 mmHg 37%
    15:00 +34°C° 0.1 mm 3 mps 751 mmHg 38%
    16:00 +34°C° 0.1 mm 3 mps 751 mmHg 40%
    17:00 +31°C° 0.2 mm 2 mps 751 mmHg 44%
    18:00 +30°C° 0.2 mm 2 mps 751 mmHg 49%
    19:00 +28°C° 0.2 mm 2 mps 751 mmHg 54%
    20:00 +27°C° 0.1 mm 2 mps 751 mmHg 55%
    21:00 +27°C° 0.1 mm 2 mps 752 mmHg 57%
    22:00 +26°C° 0.1 mm 1 mps 752 mmHg 59%
    23:00 +26°C° 0 mm 2 mps 752 mmHg 61%

    Day after tomorrow, 16 August, Thursday

    Time Temperature Precipitation Wind Pressure Humidity
    00:00 +25°C° 0 mm 2 mps 752 mmHg 64%
    01:00 +25°C° 0 mm 2 mps 752 mmHg 66%
    02:00 +25°C° 0 mm 2 mps 752 mmHg 68%
    03:00 +24°C° 0 mm 2 mps 752 mmHg 70%
    04:00 +24°C° 0 mm 2 mps 751 mmHg 72%
    05:00 +25°C° 0 mm 2 mps 752 mmHg 67%
    06:00 +26°C° 0 mm 2 mps 752 mmHg 63%
    07:00 +27°C° 0 mm 2 mps 752 mmHg 59%
    08:00 +29°C° 0.1 mm 2 mps 752 mmHg 54%
    09:00 +30°C° 0.1 mm 2 mps 752 mmHg 49%
    10:00 +32°C° 0.1 mm 2 mps 752 mmHg 43%
    11:00 +34°C° 0 mm 2 mps 752 mmHg 40%
    12:00 +34°C° 0 mm 2 mps 752 mmHg 38%
    13:00 +35°C° 0 mm 2 mps 752 mmHg 35%
    14:00 +35°C° 0 mm 2 mps 751 mmHg 35%
    15:00 +34°C° 0 mm 2 mps 751 mmHg 35%
    16:00 +34°C° 0 mm 2 mps 751 mmHg 36%
    17:00 +31°C° 0.1 mm 2 mps 751 mmHg 39%
    18:00 +30°C° 0.1 mm 1 mps 751 mmHg 43%
    19:00 +28°C° 0.1 mm 1 mps 752 mmHg 47%
    20:00 +28°C° 0 mm 1 mps 752 mmHg 48%
    21:00 +27°C° 0 mm 2 mps 752 mmHg 50%
    22:00 +27°C° 0 mm 2 mps 752 mmHg 52%
    23:00 +26°C° 0 mm 2 mps 752 mmHg 53%

    17 August, Friday

    Time Temperature Precipitation Wind Pressure Humidity
    00:00 +26°C° 0 mm 2 mps 752 mmHg 55%
    01:00 +25°C° 0 mm 2 mps 752 mmHg 57%
    02:00 +25°C° 0 mm 2 mps 752 mmHg 57%
    03:00 +25°C° 0 mm 2 mps 752 mmHg 58%
    04:00 +24°C° 0 mm 2 mps 752 mmHg 59%
    05:00 +26°C° 0 mm 2 mps 753 mmHg 55%
    06:00 +27°C° 0 mm 2 mps 753 mmHg 52%
    07:00 +29°C° 0 mm 2 mps 753 mmHg 48%
    08:00 +30°C° 0 mm 2 mps 753 mmHg 44%
    09:00 +32°C° 0 mm 1 mps 753 mmHg 40%
    10:00 +34°C° 0 mm 1 mps 753 mmHg 35%
    11:00 +34°C° 0 mm 1 mps 753 mmHg 34%
    12:00 +35°C° 0 mm 1 mps 753 mmHg 32%
    13:00 +36°C° 0 mm 1 mps 752 mmHg 30%
    14:00 +36°C° 0 mm 2 mps 752 mmHg 31%
    15:00 +36°C° 0 mm 2 mps 752 mmHg 32%
    16:00 +36°C° 0 mm 2 mps 752 mmHg 33%
    17:00 +34°C° 0 mm 2 mps 752 mmHg 37%
    18:00 +31°C° 0 mm 2 mps 752 mmHg 41%
    19:00 +30°C° 0 mm 2 mps 753 mmHg 45%
    20:00 +29°C° 0 mm 2 mps 753 mmHg 47%
    21:00 +28°C° 0 mm 1 mps 753 mmHg 48%
    22:00 +28°C° 0 mm 1 mps 753 mmHg 50%
    23:00 +27°C° 0 mm 1 mps 753 mmHg 51%

    18 August, Saturday

    Time Temperature Precipitation Wind Pressure Humidity
    00:00 +27°C° 0 mm 2 mps 753 mmHg 52%
    01:00 +26°C° 0 mm 2 mps 753 mmHg 54%
    02:00 +26°C° 0 mm 2 mps 753 mmHg 55%
    03:00 +26°C° 0 mm 2 mps 753 mmHg 57%
    04:00 +25°C° 0 mm 2 mps 753 mmHg 59%
    05:00 +27°C° 0 mm 2 mps 753 mmHg 56%
    06:00 +28°C° 0 mm 2 mps 753 mmHg 52%
    07:00 +29°C° 0 mm 2 mps 753 mmHg 49%
    08:00 +31°C° 0 mm 2 mps 753 mmHg 44%
    09:00 +34°C° 0 mm 2 mps 753 mmHg 39%
    10:00 +35°C° 0 mm 2 mps 753 mmHg 35%
    11:00 +36°C° 0 mm 2 mps 753 mmHg 33%
    12:00 +36°C° 0 mm 2 mps 753 mmHg 31%
    13:00 +37°C° 0 mm 2 mps 752 mmHg 30%
    14:00 +37°C° 0.1 mm 2 mps 752 mmHg 31%
    15:00 +36°C° 0.1 mm 2 mps 752 mmHg 32%
    16:00 +35°C° 0.1 mm 2 mps 752 mmHg 34%
    17:00 +34°C° 0.2 mm 2 mps 752 mmHg 38%
    18:00 +31°C° 0.2 mm 1 mps 752 mmHg 42%
    19:00 +29°C° 0.2 mm 1 mps 752 mmHg 46%
    20:00 +29°C° 0.1 mm 1 mps 753 mmHg 47%
    21:00 +28°C° 0.1 mm 1 mps 753 mmHg 49%
    22:00 +28°C° 0.1 mm 2 mps 753 mmHg 50%
    23:00 +27°C° 0.1 mm 2 mps 753 mmHg 51%

    19 August, Sunday

    Time Temperature Precipitation Wind Pressure Humidity
    00:00 +27°C° 0.1 mm 2 mps 753 mmHg 53%
    01:00 +27°C° 0.1 mm 2 mps 753 mmHg 54%
    02:00 +26°C° 0 mm 2 mps 753 mmHg 56%
    03:00 +26°C° 0 mm 2 mps 753 mmHg 57%
    04:00 +25°C° 0 mm 2 mps 753 mmHg 59%
    05:00 +27°C° 0 mm 2 mps 753 mmHg 56%
    06:00 +28°C° 0 mm 2 mps 753 mmHg 53%
    07:00 +29°C° 0 mm 2 mps 753 mmHg 50%
    08:00 +31°C° 0 mm 2 mps 753 mmHg 45%
    09:00 +32°C° 0 mm 2 mps 753 mmHg 40%
    10:00 +35°C° 0 mm 2 mps 753 mmHg 35%
    11:00 +35°C° 0 mm 3 mps 753 mmHg 34%
    12:00 +35°C° 0 mm 3 mps 753 mmHg 33%
    13:00 +36°C° 0 mm 3 mps 752 mmHg 32%
    14:00 +36°C° 0 mm 3 mps 752 mmHg 32%
    15:00 +36°C° 0 mm 2 mps 752 mmHg 32%
    16:00 +36°C° 0 mm 2 mps 752 mmHg 31%
    17:00 +34°C° 0 mm 2 mps 752 mmHg 35%
    18:00 +31°C° 0 mm 2 mps 752 mmHg 38%
    19:00 +30°C° 0 mm 2 mps 752 mmHg 41%
    20:00 +30°C° 0 mm 2 mps 753 mmHg 42%
    21:00 +29°C° 0 mm 2 mps 753 mmHg 43%
    22:00 +29°C° 0 mm 2 mps 753 mmHg 43%
    23:00 +28°C° 0 mm 2 mps 753 mmHg 46%
    Show more